[[{"header":{"parameterUnit":"m.s-1","parameterCategory":1,"la1":30.2991,"la2":30.254,"lo1":-89.0895,"lo2":-89.0444,"dy":0.0017,"dx":0.0017,"nx":28,"ny":28,"refTime":"2025-03-25T03:00:00:Z","depth":0,"parameterNumber":2,"parameterNumberName":"U-component_of_WINDS"},"data":[0,0,0,0,0,0,0,0,0,0,0,0,0,0,0,0,0,0,0,0,0,0,0,0,0,0,0,0,0,0,0,0,0,0,0,0,0,0,0,0,0,0,0,0,0,0,0,0,0,0,0,0,0,0,0,0,0,0,-1.9944,-1.9944,0,-1.9951,-1.9951,-1.9951,-1.9896,-1.9894,-1.9893,-1.9891,-1.9898,-1.99,-1.9901,0,0,0,0,0,0,0,0,0,0,0,0,0,-1.9884,-1.9885,-1.9944,-1.9944,-1.9944,-1.9951,-1.9951,-1.9951,-1.9896,-1.9894,-1.9892,-1.9891,-1.9897,-1.9899,-1.9901,0,0,0,0,0,0,0,0,0,0,0,0,0,-1.9903,-1.9886,-1.9944,-1.9918,-1.9915,-1.9951,-1.9951,-1.9951,-1.9897,-1.9894,-1.9892,-1.989,-1.9897,-1.9899,-1.9902,-1.9963,0,0,-1.9909,-1.991,0,0,0,0,0,0,0,0,-1.9902,-1.9905,-1.9921,-1.992,-1.9917,-1.992,-1.9932,-1.9955,-1.9897,-1.9904,-1.9891,-1.9889,-1.9907,-1.9909,-1.9915,-1.9963,-1.9963,-1.9909,-1.9911,-1.9912,-1.9912,0,0,0,0,0,0,0,-1.99,-1.9904,-1.9947,-1.9922,-1.9919,-1.9906,-1.9906,-1.9937,-1.9918,-1.9903,-1.9899,-1.9901,-1.9906,-1.9913,-1.9915,-1.9964,-1.9909,-1.9911,-1.9913,-1.9914,-2.0064,-2.0067,0,0,0,0,0,0,-1.9903,-1.9903,-1.9947,-1.9947,-1.9903,-1.9909,-1.9909,-1.9922,-1.9918,-1.9915,-1.9903,-1.9898,-1.991,-1.9912,-1.9915,-1.9987,-1.9912,-1.9914,-1.9915,-2.0062,-2.0065,-2.0068,0,0,0,0,0,0,-1.9901,-1.9907,-1.9946,-1.9924,-1.9928,-1.9912,-1.9927,-1.9923,-1.993,-1.9918,-1.9914,-1.9913,-1.9908,-1.9911,-1.9952,-1.9986,-1.9915,-1.9917,-2.0059,-2.0063,-2.0066,-2.0131,0,0,0,0,0,0,-1.99,-1.9907,-1.9929,-1.9925,-1.993,-1.9983,-1.9929,-1.9925,-1.9935,-1.9929,-1.9927,-1.9924,-1.9907,-1.9949,-1.9954,-1.9988,-1.9919,-2.0056,-2.0061,-2.0065,-2.0126,-2.0137,-2.0146,0,0,0,0,0,-1.9898,-1.9947,-1.9931,-1.9936,-1.9958,-1.9985,-1.9987,-1.9966,-1.9938,-1.996,-1.9953,-1.9924,-1.9982,-1.9953,-1.9959,-1.9994,-2.0053,-2.0059,-2.0065,-2.0121,-2.0135,-2.0146,0,0,0,0,0,0,-1.9954,-1.9946,-1.9928,-1.9977,-1.9982,-1.9976,-2.0003,-1.9981,-1.9994,-1.9988,-1.9962,-1.9962,-2.0007,-2.0005,-1.9973,-2.0055,-2.0013,-2.002,-2.0054,-2.0066,-2.0076,-2.0075,-1.9921,0,0,0,0,0,-1.9973,-1.9996,-1.9987,-2.0031,-2.0035,-2.0019,-2.003,-2.0014,-2.0018,-2.002,-2.0015,-2.0021,-2.004,-2.0053,-2.0071,-2.0126,-2.0125,-2.0154,-2.0164,-2.0172,-2.0178,-2.0209,-2.0221,-2.0086,-2.0086,-2.0086,0,0,-2.001,-2.0009,-2.0024,-2.0042,-2.0045,-2.0069,-2.0021,-2.0049,-2.0067,-2.0024,-2.0062,-2.0059,-2.0064,-2.0112,-2.0134,-2.0112,-2.0216,-2.018,-2.0186,-2.0188,-2.0216,-2.0229,-2.024,-2.009,-2.009,-2.0089,0,0,-2.0091,-2.0092,-2.0129,-2.0134,-2.0138,-2.0128,-2.0137,-2.0135,-2.0131,-2.0169,-2.0138,-2.016,-2.0194,-2.0199,-2.0206,-2.0293,-2.0267,-2.0299,-2.0351,-2.0381,-2.0392,-2.0401,-2.0432,-2.0443,-2.0306,-2.0306,-2.0306,0,-2.0137,-2.0173,-2.0151,-2.0182,-2.0191,-2.0155,-2.0193,-2.0198,-2.0208,-2.0216,-2.0192,-2.0235,-2.0236,-2.0285,-2.0307,-2.0314,-2.0324,-2.0298,-2.0392,-2.0401,-2.0409,-2.0438,-2.045,-2.031,-2.0309,-2.0309,-2.0308,0,-2.0229,-2.0255,-2.0284,-2.0296,-2.0309,-2.0343,-2.0328,-2.0343,-2.0327,-2.032,-2.036,-2.036,-2.0377,-2.0388,-2.0372,-2.0436,-2.0423,-2.0396,-2.0353,-2.0426,-2.0453,-2.0464,-2.0315,-2.0314,-2.0312,-2.0312,0,0,-2.0342,-2.0344,-2.0355,-2.0361,-2.0365,-2.0384,-2.0418,-2.0436,-2.045,-2.0459,-2.0487,-2.0518,-2.0494,-2.0502,-2.0487,-2.0513,-2.0582,-2.0483,-2.0483,-2.0501,-2.0654,-2.0673,-2.0686,-2.0567,-2.0569,-2.057,-2.0653,0,-2.042,-2.0477,-2.046,-2.0518,-2.0542,-2.051,-2.0539,-2.0546,-2.0541,-2.0561,-2.0555,-2.0578,-2.0544,-2.0549,-2.0574,-2.0569,-2.0612,-2.0563,-2.0591,-2.0593,-2.0589,-2.07,-2.0719,-2.0797,-2.0663,-2.0665,-2.0667,0,-2.0518,-2.0533,-2.0592,-2.0595,-2.0604,-2.0631,-2.0647,-2.0666,-2.0674,-2.0668,-2.0679,-2.0659,-2.0693,-2.0652,-2.0699,-2.0665,-2.0677,-2.0676,-2.0679,-2.0679,-2.0633,-2.0702,-2.0822,-2.0833,-2.0683,-2.0682,-2.068,0,-2.0594,-2.0629,-2.0669,-2.0675,-2.0679,-2.0698,-2.0701,-2.0706,-2.0719,-2.0733,-2.0741,-2.0759,-2.0769,-2.0784,-2.077,-2.0741,-2.0818,-2.0776,-2.0815,-2.0815,-2.083,-2.0829,-2.0952,-2.0841,-2.084,-2.084,-2.084,0,-2.0682,-2.072,-2.0703,-2.0728,-2.077,-2.0752,-2.0794,-2.0793,-2.0799,-2.0823,-2.0798,-2.0821,-2.0802,-2.0824,-2.0814,-2.0854,-2.0859,-2.0855,-2.0852,-2.0856,-2.0857,-2.0862,-2.0855,-2.0843,-2.0843,-2.0842,-2.0841,0,-2.0772,-2.0763,-2.0805,-2.0806,-2.0808,-2.0839,-2.084,-2.0863,-2.0858,-2.0889,-2.0896,-2.0887,-2.0912,-2.0901,-2.0926,-2.092,-2.0971,-2.0961,-2.0969,-2.0965,-2.1004,-2.1001,-2.1133,-2.115,-2.1029,-2.1031,-2.1032,0,-2.0828,-2.0856,-2.0862,-2.0877,-2.0881,-2.0906,-2.0919,-2.0903,-2.0918,-2.093,-2.0953,-2.0976,-2.0993,-2.1035,-2.1031,-2.1051,-2.1041,-2.1086,-2.1043,-2.1048,-2.104,-2.1038,-2.1041,-2.1094,-2.1095,-2.1096,-2.1097,0,-2.0928,-2.0923,-2.0942,-2.0962,-2.0979,-2.0993,-2.1005,-2.1019,-2.1005,-2.1023,-2.1049,-2.1063,-2.109,-2.1114,-2.1132,-2.1135,-2.1114,-2.1112,-2.1121,-2.1125,-2.1128,-2.1126,-2.099,-2.1108,-2.1107,-2.1106,-2.1105,-2.1105,-2.1001,-2.1026,-2.1034,-2.1058,-2.1066,-2.1079,-2.1101,-2.11,-2.1121,-2.1143,-2.1133,-2.1163,-2.1172,-2.1195,-2.1201,-2.1225,-2.1207,-2.1221,-2.1225,-2.1228,-2.1233,-2.1127,-2.1228,-2.1228,-2.1228,-2.1228,-2.1227,0,-2.1099,-2.1104,-2.1126,-2.1145,-2.1164,-2.1145,-2.1158,-2.1175,-2.1203,-2.1213,-2.1232,-2.1262,-2.1286,-2.1285,-2.1307,-2.1326,-2.1317,-2.1332,-2.133,-2.1331,-2.1248,-2.1237,-2.1339,-2.1339,-2.1339,-2.1339,-2.1339,-2.1339,-2.1152,-2.1192,-2.1189,-2.1234,-2.1238,-2.1268,-2.1278,-2.129,-2.1298,-2.1334,-2.1353,-2.1354,-2.136,-2.1383,-2.1404,-2.1403,-2.1412,-2.143,-2.1426,-2.1348,-2.1337,-2.1326,-2.1315,-2.1433,-2.1433,-2.1506,-2.1507,-2.1508]},{"header":{"parameterUnit":"m.s-1","parameterCategory":1,"la1":30.2991,"la2":30.254,"lo1":-89.0895,"lo2":-89.0444,"dy":0.0017,"dx":0.0017,"nx":28,"ny":28,"refTime":"2025-03-25T03:00:00:Z","depth":0,"parameterNumber":3,"parameterNumberName":"V-component_of_WINDS"},"data":[0,0,0,0,0,0,0,0,0,0,0,0,0,0,0,0,0,0,0,0,0,0,0,0,0,0,0,0,0,0,0,0,0,0,0,0,0,0,0,0,0,0,0,0,0,0,0,0,0,0,0,0,0,0,0,0,0,0,1.4519,1.4518,0,1.4422,1.4421,1.442,1.4386,1.4386,1.4386,1.4387,1.4278,1.4275,1.4272,0,0,0,0,0,0,0,0,0,0,0,0,0,1.4669,1.4667,1.4519,1.4518,1.4517,1.4422,1.4421,1.4419,1.4385,1.4386,1.4386,1.4387,1.4279,1.4275,1.4271,0,0,0,0,0,0,0,0,0,0,0,0,0,1.4591,1.4666,1.452,1.4489,1.4485,1.4422,1.4421,1.4419,1.4385,1.4386,1.4387,1.4387,1.428,1.4276,1.4271,1.4229,0,0,1.4256,1.4254,0,0,0,0,0,0,0,0,1.4595,1.4585,1.4494,1.4491,1.4487,1.4417,1.4434,1.4355,1.4385,1.4423,1.4387,1.4387,1.4323,1.4315,1.4295,1.4224,1.4219,1.4256,1.4253,1.425,1.4249,0,0,0,0,0,0,0,1.4601,1.4589,1.448,1.4493,1.4488,1.4478,1.4467,1.4419,1.4371,1.442,1.4417,1.4406,1.4321,1.43,1.4292,1.4218,1.4256,1.4251,1.4248,1.4246,1.4108,1.4107,0,0,0,0,0,0,1.4613,1.4594,1.4484,1.4478,1.4544,1.4474,1.4463,1.4438,1.4371,1.4362,1.4406,1.4405,1.4308,1.4298,1.4288,1.4235,1.425,1.4246,1.4243,1.4108,1.4107,1.4107,0,0,0,0,0,0,1.4616,1.4603,1.4487,1.4535,1.452,1.4471,1.4444,1.4436,1.4415,1.4361,1.4351,1.4394,1.4308,1.4295,1.4245,1.423,1.4244,1.4239,1.4109,1.4108,1.4107,1.4127,0,0,0,0,0,0,1.462,1.4604,1.4589,1.4535,1.4517,1.4448,1.4443,1.4434,1.4408,1.4406,1.4347,1.4337,1.4307,1.4252,1.424,1.4224,1.4235,1.411,1.4109,1.4107,1.4128,1.4127,1.4127,0,0,0,0,0,1.4626,1.4597,1.4589,1.4576,1.4498,1.4447,1.4436,1.4405,1.4407,1.439,1.4356,1.4339,1.4235,1.4247,1.4233,1.4215,1.4111,1.4109,1.4107,1.4128,1.4127,1.4127,0,0,0,0,0,0,1.4647,1.4589,1.4579,1.4533,1.4496,1.4442,1.4419,1.4405,1.4364,1.4364,1.4324,1.4311,1.4263,1.4234,1.425,1.4172,1.4172,1.4167,1.4192,1.4191,1.419,1.4197,1.4231,0,0,0,0,0,1.4647,1.4613,1.4563,1.4527,1.4509,1.4468,1.4444,1.4424,1.4382,1.4365,1.4327,1.4285,1.4243,1.4216,1.4174,1.4124,1.411,1.4105,1.4105,1.4105,1.41,1.4072,1.4069,1.4101,1.4101,1.4101,0,0,1.4645,1.4609,1.4589,1.453,1.4499,1.4462,1.4454,1.4416,1.4388,1.4358,1.4309,1.428,1.4231,1.4181,1.4157,1.4155,1.4089,1.4102,1.4103,1.4098,1.407,1.4067,1.4064,1.41,1.41,1.41,0,0,1.4623,1.4593,1.456,1.453,1.4484,1.4457,1.4449,1.4398,1.4378,1.4329,1.4307,1.4272,1.42,1.4166,1.4139,1.4108,1.409,1.4095,1.4091,1.4064,1.4061,1.4059,1.4046,1.4043,1.4091,1.4091,1.4091,0,1.4625,1.4572,1.4544,1.4507,1.4481,1.4457,1.4422,1.4393,1.4335,1.4316,1.4316,1.4227,1.4192,1.4134,1.4127,1.4106,1.4094,1.41,1.4065,1.4062,1.4059,1.4047,1.4042,1.4092,1.4092,1.4092,1.4092,0,1.4577,1.454,1.4519,1.4467,1.4438,1.4402,1.4367,1.4341,1.4324,1.4297,1.4247,1.4205,1.4155,1.414,1.4121,1.4079,1.408,1.4073,1.4071,1.4057,1.4045,1.404,1.4093,1.4093,1.4093,1.4092,0,0,1.4562,1.4498,1.449,1.4467,1.4416,1.4385,1.4349,1.4303,1.4281,1.4242,1.4209,1.415,1.4144,1.4114,1.4092,1.4068,1.4045,1.4064,1.4062,1.4061,1.3996,1.4001,1.3996,1.4035,1.4034,1.4033,1.4,0,1.4533,1.4468,1.4443,1.4389,1.4355,1.4333,1.43,1.4265,1.4239,1.4204,1.4174,1.4133,1.4129,1.4111,1.4087,1.4053,1.4031,1.4056,1.4001,1.4,1.4013,1.399,1.3994,1.3964,1.3995,1.3994,1.3994,0,1.4488,1.4453,1.4397,1.4352,1.4336,1.4308,1.4264,1.4232,1.4191,1.4174,1.4142,1.4122,1.408,1.4084,1.4026,1.4043,1.4019,1.4,1.3998,1.399,1.3994,1.3979,1.3954,1.3949,1.3986,1.3987,1.3987,0,1.4482,1.442,1.4379,1.436,1.4306,1.4287,1.4263,1.4223,1.4197,1.4158,1.4141,1.4097,1.4073,1.4038,1.4006,1.4012,1.3951,1.3951,1.3933,1.3934,1.3919,1.392,1.3888,1.3907,1.3907,1.3907,1.3907,0,1.445,1.4417,1.4376,1.435,1.4312,1.4283,1.4245,1.4219,1.4184,1.4152,1.413,1.4099,1.406,1.4024,1.3998,1.3954,1.3943,1.3926,1.3919,1.3927,1.3929,1.3909,1.391,1.3906,1.3906,1.3907,1.3907,0,1.4436,1.4407,1.4361,1.4316,1.4303,1.4277,1.4237,1.421,1.4185,1.4144,1.4133,1.4092,1.4049,1.4015,1.3957,1.394,1.3893,1.3886,1.3908,1.3904,1.3887,1.3889,1.384,1.3831,1.3858,1.3858,1.3858,0,1.4416,1.439,1.4343,1.4322,1.4299,1.4264,1.4239,1.421,1.4184,1.4137,1.4116,1.4072,1.4035,1.3967,1.3931,1.3887,1.3878,1.3864,1.3871,1.388,1.3876,1.3878,1.3874,1.3862,1.3862,1.3862,1.3862,0,1.4384,1.4372,1.4339,1.43,1.4272,1.4239,1.4206,1.4189,1.4153,1.4126,1.4083,1.4055,1.3999,1.3955,1.3909,1.3881,1.3865,1.3861,1.3854,1.3861,1.3874,1.3865,1.3904,1.3861,1.3861,1.3862,1.3862,1.3862,1.4365,1.4342,1.4306,1.4269,1.4242,1.4212,1.4186,1.4159,1.4124,1.4078,1.4062,1.4018,1.3978,1.3915,1.3888,1.3852,1.385,1.384,1.3838,1.3835,1.3836,1.3882,1.3843,1.3843,1.3843,1.3843,1.3843,0,1.4331,1.4308,1.4275,1.4231,1.4202,1.4194,1.4157,1.4133,1.4095,1.4061,1.4027,1.3978,1.3937,1.3899,1.3855,1.3833,1.3825,1.3822,1.3822,1.3816,1.384,1.385,1.383,1.383,1.383,1.383,1.383,1.383,1.431,1.427,1.4254,1.42,1.4176,1.4135,1.4115,1.4087,1.406,1.4008,1.3974,1.3952,1.3915,1.3869,1.383,1.382,1.3804,1.3803,1.3791,1.3813,1.3815,1.3816,1.3825,1.3801,1.3801,1.377,1.377,1.377]}]]